EW4077 Weather Reports


time (UTC)temp
F
wind
direction
speed
knots
gust
knots
rain 1hr
in
rain 24hr
in
rain mn
in
humidity
%
barometer
mb
20260507203038 64 213 7.8 13.9 0.00 0.00 0.00 81 1015.2
20260507201533 64 225 5.2 8.7 0.00 0.00 0.00 80 1015.3
20260507200031 65 224 4.3 8.7 0.00 0.00 0.00 78 1015.6
20260507194545 65 187 4.3 8.7 0.00 0.00 0.00 78 1015.8
20260507193029 65 155 4.3 7.8 0.00 0.00 0.00 78 1015.9
20260507191527 64 140 5.2 8.7 0.00 0.00 0.00 78 1016.0
20260507190039 64 170 6.1 7.8 0.00 0.00 0.00 78 1016.2
20260507184532 64 148 3.5 7.8 0.00 0.00 0.00 79 1016.3
20260507183024 64 184 5.2 7.0 0.00 0.00 0.00 78 1016.4
20260507181524 64 174 4.3 7.8 0.00 0.00 0.00 79 1016.4
20260507180022 64 170 5.2 7.8 0.00 0.00 0.00 79 1016.4
20260507174521 64 164 5.2 7.8 0.00 0.00 0.00 80 1016.4
20260507173036 64 184 5.2 7.8 0.00 0.00 0.00 80 1016.5
20260507171519 64 167 2.6 8.7 0.00 0.00 0.00 80 1016.4
20260507170021 64 163 3.5 8.7 0.00 0.00 0.00 79 1016.5
20260507164523 64 202 2.6 5.2 0.00 0.00 0.00 79 1016.5
20260507163018 65 171 2.6 6.1 0.00 0.00 0.00 79 1016.5
20260507161516 64 213 2.6 4.3 0.00 0.00 0.00 80 1016.5
20260507160014 64 166 2.6 5.2 0.00 0.00 0.00 78 1016.6
20260507154514 65 162 0.9 3.5 0.00 0.00 0.00 77 1016.5
20260507153011 64 150 0.9 2.6 0.00 0.00 0.00 78 1016.6
20260507151510 64 127 1.7 2.6 0.00 0.00 0.00 77 1016.7
20260507150007 63 76 0.0 1.7 0.00 0.00 0.00 79 1016.6
20260507144505 63 340 0.0 0.9 0.00 0.00 0.00 81 1016.5
20260507143016 62 286 0.9 0.9 0.00 0.00 0.00 79 1016.4
20260507141604 61 302 0.0 0.9 0.00 0.00 0.00 83 1016.3
20260507140058 60 302 0.0 1.7 0.00 0.00 0.00 85 1016.3
20260507134558 60 280 0.9 2.6 0.00 0.00 0.00 88 1016.1
20260507133058 59 274 0.9 5.2 0.00 0.00 0.00 89 1015.9
20260507131602 59 250 2.6 4.3 0.00 0.00 0.00 90 1015.9
20260507130057 59 238 1.7 4.3 0.00 0.00 0.00 91 1015.8
20260507124603 59 265 0.9 2.6 0.00 0.00 0.00 91 1015.7
20260507123055 59 261 0.9 2.6 0.00 0.00 0.00 91 1015.7
20260507121555 58 280 0.0 0.9 0.00 0.00 0.00 90 1015.7
20260507120053 59 269 0.0 0.9 0.00 0.00 0.00 90 1015.7
20260507114606 59 296 0.9 1.7 0.00 0.00 0.00 90 1015.7
20260507113119 59 250 0.9 2.6 0.00 0.00 0.00 90 1015.7
20260507111550 59 257 0.9 2.6 0.00 0.00 0.00 90 1015.8
20260507110048 59 234 1.7 2.6 0.00 0.00 0.00 89 1015.9
20260507104546 59 257 0.9 2.6 0.00 0.00 0.00 89 1016.1
20260507103050 59 252 0.9 2.6 0.00 0.00 0.00 88 1016.1
20260507101546 59 242 0.0 0.9 0.00 0.00 0.00 88 1016.2
20260507100040 59 267 0.0 0.9 0.00 0.00 0.00 87 1016.1
20260507094541 59 246 0.0 1.7 0.00 0.00 0.00 86 1016.2
20260507093037 60 279 0.0 0.0 0.00 0.00 0.00 85 1016.4
20260507091540 59 267 0.0 0.0 0.00 0.00 0.00 84 1016.5
20260507090033 59 292 0.0 0.9 0.00 0.00 0.00 85 1016.7
20260507084541 60 292 0.9 1.7 0.00 0.00 0.00 85 1016.8
20260507083031 59 262 0.0 0.9 0.00 0.00 0.00 86 1016.9
20260507081536 60 269 0.0 0.9 0.00 0.00 0.00 86 1016.9
20260507080029 60 211 0.0 1.7 0.00 0.00 0.00 85 1017.0
20260507074530 60 156 0.9 2.6 0.00 0.00 0.00 85 1017.0
20260507073027 61 175 0.0 4.3 0.00 0.00 0.00 82 1017.1
20260507071525 60 246 1.7 4.3 0.00 0.00 0.00 84 1017.2
20260507070021 60 252 0.0 0.9 0.00 0.00 0.00 87 1017.2
20260507064520 60 148 0.0 1.7 0.00 0.00 0.00 86 1017.2
20260507063024 60 149 0.0 1.7 0.00 0.00 0.00 86 1017.2
20260507061519 61 176 0.0 3.5 0.00 0.00 0.00 86 1017.3
20260507060018 61 257 1.7 3.5 0.00 0.00 0.00 83 1017.3
20260507054517 61 226 0.0 4.3 0.00 0.00 0.00 83 1017.3
20260507053017 61 263 1.7 3.5 0.00 0.00 0.00 79 1017.3
20260507051516 61 281 1.7 4.3 0.00 0.00 0.00 84 1017.3
20260507050024 61 214 1.7 7.0 0.00 0.00 0.00 86 1017.2
20260507044515 61 246 3.5 7.0 0.00 0.00 0.00 85 1017.2
20260507043022 61 258 4.3 7.0 0.00 0.00 0.00 84 1017.2
20260507041513 61 240 3.5 9.6 0.00 0.00 0.00 85 1017.1
20260507040013 61 254 5.2 9.6 0.00 0.00 0.00 85 1016.9
20260507034520 61 261 4.3 8.7 0.00 0.00 0.00 85 1016.7
20260507033015 62 244 3.5 7.8 0.00 0.00 0.00 83 1016.5
20260507031510 62 221 5.2 8.7 0.00 0.00 0.00 82 1016.3
20260507030010 62 254 6.1 10.4 0.00 0.00 0.00 82 1016.2
20260507024514 63 214 4.3 8.7 0.00 0.00 0.00 77 1016.2
20260507023009 63 264 6.1 12.2 0.00 0.00 0.00 73 1015.9
20260507021510 63 242 6.1 11.3 0.00 0.00 0.00 80 1015.8
20260507020009 63 256 8.7 13.9 0.00 0.00 0.00 78 1015.7
20260507014507 63 272 11.3 14.8 0.00 0.00 0.00 79 1015.6
20260507013008 63 258 9.6 16.5 0.00 0.00 0.00 77 1015.5
20260507011511 63 245 7.8 13.9 0.00 0.00 0.00 78 1015.4
20260507010005 64 251 9.6 15.6 0.00 0.00 0.00 78 1015.3
20260507004504 64 247 11.3 15.6 0.00 0.00 0.00 78 1015.3
20260507003004 64 262 10.4 17.4 0.00 0.00 0.00 80 1015.4
20260507001507 64 240 10.4 15.6 0.00 0.00 0.00 79 1015.3
20260507000002 64 263 7.8 17.4 0.00 0.00 0.00 79 1015.2
20260506234603 64 244 11.3 16.5 0.00 0.00 0.00 79 1015.3
20260506233101 64 264 10.4 16.5 0.00 0.00 0.00 77 1015.3
20260506231605 64 246 11.3 16.5 0.00 0.00 0.00 77 1015.5
20260506230104 64 238 9.6 15.6 0.00 0.00 0.00 77 1015.7
20260506224550 64 247 10.4 14.8 0.00 0.00 0.00 76 1015.9
20260506223048 64 225 8.7 14.8 0.00 0.00 0.00 76 1016.1
20260506221603 65 265 6.1 11.3 0.00 0.00 0.00 75 1016.4
20260506220043 65 250 5.2 12.2 0.00 0.00 0.00 77 1016.6
20260506214541 65 243 8.7 11.3 0.00 0.00 0.00 74 1016.7
20260506213038 65 248 7.8 11.3 0.00 0.00 0.00 74 1016.9
20260506211635 65 188 5.2 8.7 0.00 0.00 0.00 74 1017.1
20260506210048 65 223 5.2 8.7 0.00 0.00 0.00 69 1017.3
20260506204533 66 205 3.5 6.1 0.00 0.00 0.00 63 1017.4